GSAT0214 (GALILEO 18)

Last updated on Wed Aug 19 2026 00:02:49 GMT+0000 (Coordinated Universal Time)

1 41862U 16069D 26228.53078284 -.00000024 00000+0 00000+0 0 9995 2 41862 55.5329 99.4109 0002338 348.9944 11.0861 1.70473887 60672
UTC large
Height (km)
Speed (km/s)
/
Latitude / Longitude
Inclination (degrees)
Orbital Period (minutes)
Azimuth
Elevation
Range (km)
Doppler Factor

Next 0 passes for location: London (51.5072 / 0.1276)

No passes found over London.
GSAT0214 (GALILEO 18)